Weather in Kangar

Malaysia     6°26′44″N   100°11′59″E
temp.,
°C
wind,
m/s
gust,
m/s
humid.,
%
clouds,
%
prec.,
mm/h
press.,
hPa
HPBL,
m
19 april, mon
mon1923:00+26wnw228398 0.1 101240
02:00+24nnw019398 2.7 101111
05:00+23sse009695 4.1 101014
08:00+24s019490 5.4 101252
11:00+29wsw247369 0.9 1012937
14:00+30wsw4567100 3.1 10101179
17:00+30wsw4562100 0.7 10081124
20:00+26w257999 0.7 1010144
20 april, tue
tue2023:00+24wnw1189100 0.8 101227
02:00+24w119272 2.2 101116
05:00+23s019679 7.9 100929
08:00+24sse1196100 16.4 101165
11:00+24sse2295100 7.3 101298
14:00+25w1393100 12.0 1011321
17:00+27w3584100 0.1 1008693
20:00+25sw2288100 0.2 100932
21 april, wed
wed2123:00+24ssw1189100 0.0 101211
02:00+24ssw019090 0.1 101011
05:00+23sw1192100 0.7 100911
08:00+24n009350 3.0 101134
11:00+29wsw237386 0.3 1012898
14:00+32w446075 0.7 10101502
17:00+30w456686 0.3 10081064
20:00+26w268399 0.3 1010173
22 april, thu
thu2223:00+25w238882 0.9 101158
02:00+24wnw0194100 7.1 101023
05:00+24e019593 5.1 100915
08:00+24sse119687 12.7 101063
11:00+27w3687100 7.9 1011240
14:00+27w4787100 16.3 1010393
17:00+25wsw4891100 4.0 1008276
20:00+25sw119089 4.6 100919
23 april, fri
fri2323:00+24s1294100 3.1 101137
02:00+24sse0195100 8.5 101018
05:00+24w1195100 3.3 100822
08:00+24s1196100 12.9 101045
11:00+24w2695100 6.6 1011231
14:00+28w5772100 6.8 1010816
17:00+27sw4576100 0.0 1009739
20:00+25sw1285100 0.0 100922